This is the latest recevied weather packets stored in our database for station/object DM2KB-13. If no packets are shown the sender has not sent any weather packets the latest 1 day(s).
| Time | Temp. | Humidity | Pressure | Rain* | Wind** | Luminosity | Snow |
|---|---|---|---|---|---|---|---|
| 1836274801 | 17.22° C | 79% | 1014.5 hPa | 0 mm | 0.45 m/s, 184° | 0 W/m² | - |
| 1836274501 | 17.22° C | 79% | 1014.5 hPa | 0 mm | 0.45 m/s, 187° | 0 W/m² | - |
| 1836274351 | 17.22° C | 79% | 1014.4 hPa | 0 mm | 0.89 m/s, 175° | 0 W/m² | - |
| 1836274200 | 17.22° C | 79% | 1014.6 hPa | 0 mm | 0.45 m/s, 172° | 0 W/m² | - |
| 1836273900 | 17.22° C | 79% | 1014.8 hPa | 0 mm | 0.45 m/s, 185° | 0 W/m² | - |
| 1778031349 | 10° C | 98% | 1005.3 hPa | 2.03 mm | 0.89 m/s, 329° | 0 W/m² | - |
| 1778031049 | 10° C | 98% | 1005.4 hPa | 2.03 mm | 0.89 m/s, 21° | 0 W/m² | - |
| 1778030748 | 10° C | 98% | 1005.4 hPa | 2.03 mm | 0.89 m/s, 8° | 0 W/m² | - |
| 1778030448 | 10° C | 98% | 1005.4 hPa | 2.03 mm | 0.89 m/s, 314° | 0 W/m² | - |
| 1778030148 | 10° C | 98% | 1005.4 hPa | 1.78 mm | 0.89 m/s, 29° | 0 W/m² | - |
| 1778029847 | 10° C | 98% | 1005.5 hPa | 1.78 mm | 0.89 m/s, 34° | 0 W/m² | - |
| 1778029547 | 10° C | 98% | 1005.5 hPa | 1.78 mm | 0.89 m/s, 37° | 0 W/m² | - |
| 1778029247 | 10° C | 98% | 1005.5 hPa | 1.78 mm | 0.89 m/s, 9° | 0 W/m² | - |
| 1778028947 | 10° C | 98% | 1005.5 hPa | 1.78 mm | 0.89 m/s, 327° | 0 W/m² | - |
| 1778028646 | 10° C | 98% | 1005.6 hPa | 1.78 mm | 1.34 m/s, 6° | 0 W/m² | - |
| 1778028346 | 10° C | 98% | 1005.6 hPa | 2.03 mm | 1.34 m/s, 33° | 0 W/m² | - |
| 1778028047 | 10° C | 98% | 1005.6 hPa | 2.29 mm | 0.89 m/s, 35° | 0 W/m² | - |
| 1778027746 | 10° C | 98% | 1005.7 hPa | 2.54 mm | 0.89 m/s, 17° | 0 W/m² | - |
| 1778027445 | 10° C | 98% | 1005.6 hPa | 2.79 mm | 0.89 m/s, 71° | 0 W/m² | - |
| 1778027145 | 10° C | 98% | 1005.7 hPa | 3.3 mm | 1.34 m/s, 40° | 0 W/m² | - |
| 1778026845 | 10° C | 98% | 1005.8 hPa | 3.81 mm | 0.89 m/s, 21° | 0 W/m² | - |
| 1778026544 | 10° C | 98% | 1005.9 hPa | 4.06 mm | 0.89 m/s, 71° | 0 W/m² | - |
| 1778026244 | 10° C | 98% | 1005.9 hPa | 4.06 mm | 0.89 m/s, 21° | 0 W/m² | - |
| 1778025944 | 10° C | 98% | 1005.9 hPa | 4.32 mm | 1.34 m/s, 34° | 0 W/m² | - |
| 1778025644 | 10° C | 98% | 1006 hPa | 4.32 mm | 1.34 m/s, 27° | 0 W/m² | - |
* Rain latest hour (hover to see other rain measurements)
** Current wind speed in m/s (hover to see current wind gust speed)